Regional Weather Roundup
Issued by NWS

Home | Current Version | Previous Version | Graphics & Text | Print | Product List | Glossary On
Versions: 1 2 3 4 5 6 7 8 9 10 11 12 13 14 15 16 17 18 19 20 21 22 23 24 25 26 27 28 29 30 31 32 33 34 35 36 37 38 39 40 41 42 43 44 45 46 47 48 49 50
000
ASUS45 KBOU 310207
RWRCO

WEATHER ROUNDUP FOR COLORADO
NATIONAL WEATHER SERVICE DENVER/BOULDER CO
800 PM MDT SAT JUL 30 2016

NOTE: "FAIR" INDICATES FEW OR NO CLOUDS BELOW 12000 FEET WITH NO
SIGNIFICANT WEATHER AND/OR OBSTRUCTIONS TO VISIBILITY.

COZ001>005-013-030-031-310300-
...NORTHWEST COLORADO...

CITY           SKY/WX    TMP DP  RH WIND       PRES   REMARKS
CRAIG          FAIR      80  41  24 VRB5      30.08R
HAYDEN         MOCLDY    73  43  33 W15       30.11R
MEEKER         LGT RAIN  79  42  26 NE29G38   30.07R
MOUNT WERNER   NOT AVBL
STEAMBOAT SPGS CLOUDY    76  40  27 NW12      30.14R
WALDEN         FAIR      61  43  51 E5        30.23S
$$

COZ006>008-011-310300-
...WEST CENTRAL VALLEYS...

CITY           SKY/WX    TMP DP  RH WIND       PRES   REMARKS
GRAND JUNCTION FAIR      91  40  16 SW5       29.92S
MONTROSE       FAIR      82  42  24 SE17      30.04F
EAGLE          FAIR      84  37  18 SW12      30.08S
RIFLE          FAIR      88  36  15 W12       29.97S
DELTA          NOT AVBL
NUCLA          NOT AVBL
$$

COZ017>023-064>068-310300-
...SOUTHWEST COLORADO...

CITY           SKY/WX    TMP DP  RH WIND       PRES   REMARKS
DURANGO        FAIR      75  43  31 SE7       30.14S
CORTEZ         FAIR      84  45  25 NE7       30.04R
PAGOSA SPRINGS FAIR      75  33  21 CALM      30.27R
TELLURIDE      FAIR      62  47  57 CALM      30.37F
WOLF CREEK PAS CLOUDY    52  34  50 NW7       30.62S
$$

COZ009-010-012-014-032>034-037-058>063-310300-
...CENTRAL COLORADO...

CITY           SKY/WX    TMP DP  RH WIND       PRES   REMARKS
ASPEN          FAIR      70  40  33 SW5       30.17S
BUENA VISTA    MOCLDY    68  41  37 E5        30.23R
COPPER MTN     FAIR      63  23  22 CALM      30.57R
BERTHOUD PASS  FAIR      50  36  57 NW9       30.60S
COTTONWOOD PAS MOCLDY    64  36  34 CALM      30.37F
GUNNISON       FAIR      73  37  27 SW6       30.22F
KREMMLING      FAIR      79  27  14 NW7       30.16R
LEADVILLE      FAIR      63  33  32 S13G24    30.36R
MONARCH PASS   FAIR      57  32  38 MISG      30.66S
SALIDA         FAIR      71  44  38 SE5       30.27S
SUNLIGHT       FAIR      63  37  39 MISG      30.48F
WILKERSON PASS LGT RAIN  55  34  44 SE3       30.55R
$$

COZ069>075-310300-
...SAN LUIS VALLEY/SANGRE DE CRISTO MOUNTAINS...

CITY           SKY/WX    TMP DP  RH WIND       PRES   REMARKS
ALAMOSA        FAIR      66  45  46 E12       30.24R
LA VETA PASS   FAIR      52  43  71 S7        30.46F
SAGUACHE       FAIR      64  43  45 CALM      30.25F
$$

COZ035-036-038>040-310300-
...NORTHERN COLORADO FRONT RANGE...

CITY           SKY/WX    TMP DP  RH WIND       PRES   REMARKS
DENVER INTL AP MOCLDY    82  44  26 E7        29.98S
DMNS CITY PARK   N/A     83  45  26 E2        29.99R
AURORA         PTCLDY    82  45  26 SE5       30.01R
FRONT RANGE AP PTCLDY    84  45  24 E5        29.99F
ERIE MUNI ARPT FAIR      84  45  25 NE5       29.98R
BOULDER MUN AP FAIR      81  54  39 N6        30.00R
CENTENNIAL     FAIR      81  43  26 S6        30.03R
BROOMFIELD     NOT AVBL
LONGMONT       NOT AVBL
$$

COZ041-046-047-076>085-087-088-310300-
...PIKES PEAK/PALMER DIVIDE AND SOUTHERN FOOTHILLS...

CITY           SKY/WX    TMP DP  RH WIND       PRES   REMARKS
COLO. SPRINGS  MOCLDY    74  45  35 S13       30.11R
A. F. ACADEMY  FAIR      74  43  32 SE9       30.11R
SCHRIEVER AFB  NOT AVBL
ELLICOTT       NOT AVBL
FALCON         FAIR      69  44  40 SW10      30.17
FORT CARSON    NOT AVBL
LIMON          FAIR      78  52  40 S8        30.02R
MONUMENT HILL  FAIR      68  43  40 S12       30.17R
TRINIDAD       NOT AVBL
$$

COZ042>045-048>051-090-091-310300-
...NORTHEAST COLORADO...

CITY           SKY/WX    TMP DP  RH WIND       PRES   REMARKS
GREELEY ARPT   FAIR      79  61  53 S6        29.97R
AKRON          FAIR      77  59  53 SE10      29.96S
BURLINGTON     FAIR      81  62  52 E15       29.93S
WRAY           NOT AVBL
STERLING       NOT AVBL
HOLYOKE        NOT AVBL
FORT MORGAN    NOT AVBL
$$

COZ086-089-092>099-310300-
...SOUTHEAST COLORADO...

CITY           SKY/WX    TMP DP  RH WIND       PRES   REMARKS
PUEBLO         FAIR      81  50  33 SW23      29.98S
LA JUNTA       FAIR      83  48  29 W13       29.91F
LAMAR          FAIR      86  55  34 SW18      29.85R
SPRINGFIELD      N/A     76  46  34 SW28G35   29.93R
$$



USA.gov is the U.S. government's official web portal to all federal, state and local government web resources and services.